| time (UTC) | temp F | wind direction | speed MPH | gust MPH | rain 1hr in | rain 24hr in | rain mn in | humidity % | barometer mb |
| 20260506035530 | 66 | 176 | 1.0 | 3.0 | 0.00 | 0.00 | 0.00 | 83 | 1017.1 |
| 20260506034525 | 66 | 172 | 1.0 | 4.0 | 0.00 | 0.00 | 0.00 | 84 | 1017.1 |
| 20260506033520 | 65 | 173 | 1.0 | 2.0 | 0.00 | 0.00 | 0.00 | 85 | 1017.2 |
| 20260506032535 | 66 | 155 | 0.0 | 1.0 | 0.00 | 0.00 | 0.00 | 82 | 1017.4 |
| 20260506031530 | 66 | 159 | 1.0 | 2.0 | 0.00 | 0.00 | 0.00 | 81 | 1017.2 |
| 20260506030525 | 67 | 172 | 1.0 | 2.0 | 0.00 | 0.00 | 0.00 | 80 | 1017.2 |
| 20260506025520 | 67 | 168 | 1.0 | 3.0 | 0.00 | 0.00 | 0.00 | 78 | 1017.2 |
| 20260506024536 | 67 | 181 | 1.0 | 3.0 | 0.00 | 0.00 | 0.00 | 77 | 1017.3 |
| 20260506023530 | 67 | 176 | 2.0 | 3.0 | 0.00 | 0.00 | 0.00 | 77 | 1017.3 |
| 20260506022525 | 67 | 190 | 2.0 | 4.0 | 0.00 | 0.00 | 0.00 | 76 | 1017.3 |
| 20260506021521 | 67 | 190 | 1.0 | 3.0 | 0.00 | 0.00 | 0.00 | 77 | 1017.2 |
| 20260506020516 | 67 | 173 | 2.0 | 4.0 | 0.00 | 0.00 | 0.00 | 77 | 1017.0 |
| 20260506015531 | 67 | 185 | 2.0 | 4.0 | 0.00 | 0.00 | 0.00 | 77 | 1017.0 |
| 20260506014526 | 67 | 190 | 2.0 | 4.0 | 0.00 | 0.00 | 0.00 | 77 | 1016.9 |
| 20260506013521 | 67 | 195 | 2.0 | 4.0 | 0.00 | 0.00 | 0.00 | 76 | 1017.1 |
| 20260506012516 | 67 | 185 | 2.0 | 4.0 | 0.00 | 0.00 | 0.00 | 76 | 1016.9 |
| 20260506011532 | 68 | 190 | 2.0 | 4.0 | 0.00 | 0.00 | 0.00 | 76 | 1016.9 |
| 20260506010527 | 68 | 177 | 3.0 | 4.0 | 0.00 | 0.00 | 0.00 | 75 | 1017.0 |
| 20260506005522 | 68 | 186 | 3.0 | 5.0 | 0.00 | 0.00 | 0.00 | 74 | 1017.0 |
| 20260506004517 | 68 | 182 | 3.0 | 5.0 | 0.00 | 0.00 | 0.00 | 73 | 1017.0 |
| 20260506003532 | 68 | 203 | 2.0 | 5.0 | 0.00 | 0.00 | 0.00 | 74 | 1017.1 |
| 20260506002527 | 68 | 185 | 2.0 | 5.0 | 0.00 | 0.00 | 0.00 | 74 | 1017.0 |
| 20260506001523 | 68 | 200 | 2.0 | 4.0 | 0.00 | 0.00 | 0.00 | 72 | 1016.8 |
| 20260506000518 | 68 | 194 | 2.0 | 6.0 | 0.00 | 0.00 | 0.00 | 73 | 1016.9 |
| 20260505235534 | 69 | 198 | 2.0 | 4.0 | 0.00 | 0.00 | 0.00 | 72 | 1016.8 |
| 20260505234528 | 69 | 185 | 2.0 | 5.0 | 0.00 | 0.00 | 0.00 | 71 | 1016.9 |
| 20260505233523 | 69 | 185 | 2.0 | 4.0 | 0.00 | 0.00 | 0.00 | 71 | 1016.8 |
| 20260505232517 | 70 | 199 | 2.0 | 6.0 | 0.00 | 0.00 | 0.00 | 71 | 1016.8 |
| 20260505231532 | 70 | 197 | 2.0 | 4.0 | 0.00 | 0.00 | 0.00 | 70 | 1016.9 |
| 20260505230528 | 70 | 188 | 3.0 | 5.0 | 0.00 | 0.00 | 0.00 | 68 | 1016.9 |
| 20260505225523 | 70 | 206 | 3.0 | 5.0 | 0.00 | 0.00 | 0.00 | 68 | 1017.0 |
| 20260505224518 | 71 | 195 | 3.0 | 9.0 | 0.00 | 0.00 | 0.00 | 68 | 1017.0 |
| 20260505223533 | 70 | 195 | 3.0 | 5.0 | 0.00 | 0.00 | 0.00 | 69 | 1016.9 |
| 20260505222528 | 71 | 186 | 3.0 | 9.0 | 0.00 | 0.00 | 0.00 | 69 | 1016.9 |
| 20260505221523 | 71 | 197 | 3.0 | 5.0 | 0.00 | 0.00 | 0.00 | 70 | 1017.1 |
| 20260505220519 | 72 | 190 | 3.0 | 7.0 | 0.00 | 0.00 | 0.00 | 67 | 1017.0 |
| 20260505215534 | 72 | 192 | 3.0 | 5.0 | 0.00 | 0.00 | 0.00 | 69 | 1017.0 |
| 20260505214529 | 72 | 184 | 3.0 | 6.0 | 0.00 | 0.00 | 0.00 | 68 | 1016.9 |
| 20260505213524 | 72 | 199 | 3.0 | 7.0 | 0.00 | 0.00 | 0.00 | 68 | 1017.0 |
| 20260505212519 | 73 | 193 | 4.0 | 7.0 | 0.00 | 0.00 | 0.00 | 66 | 1016.8 |
| 20260505211534 | 73 | 195 | 3.0 | 12.0 | 0.00 | 0.00 | 0.00 | 64 | 1017.1 |
| 20260505210530 | 74 | 203 | 4.0 | 7.0 | 0.00 | 0.00 | 0.00 | 62 | 1017.1 |
| 20260505205525 | 73 | 199 | 4.0 | 9.0 | 0.00 | 0.00 | 0.00 | 62 | 1017.1 |
| 20260505204520 | 74 | 212 | 4.0 | 8.0 | 0.00 | 0.00 | 0.00 | 61 | 1017.0 |
| 20260505203535 | 75 | 216 | 4.0 | 9.0 | 0.00 | 0.00 | 0.00 | 60 | 1017.0 |
| 20260505202530 | 74 | 208 | 3.0 | 6.0 | 0.00 | 0.00 | 0.00 | 61 | 1016.9 |
| 20260505201525 | 75 | 198 | 4.0 | 8.0 | 0.00 | 0.00 | 0.00 | 59 | 1016.9 |
| 20260505200521 | 74 | 207 | 4.0 | 7.0 | 0.00 | 0.00 | 0.00 | 59 | 1017.1 |
| 20260505195537 | 76 | 175 | 2.0 | 6.0 | 0.00 | 0.00 | 0.00 | 57 | 1017.3 |
| 20260505194531 | 75 | 204 | 3.0 | 8.0 | 0.00 | 0.00 | 0.00 | 58 | 1017.5 |
| 20260505193526 | 75 | 202 | 5.0 | 13.0 | 0.00 | 0.00 | 0.00 | 57 | 1017.8 |
| 20260505192521 | 75 | 215 | 3.0 | 6.0 | 0.00 | 0.00 | 0.00 | 58 | 1017.8 |
| 20260505191516 | 75 | 217 | 3.0 | 5.0 | 0.00 | 0.00 | 0.00 | 56 | 1017.8 |
| 20260505190532 | 75 | 204 | 4.0 | 10.0 | 0.00 | 0.00 | 0.00 | 58 | 1017.9 |
| 20260505185527 | 76 | 244 | 3.0 | 6.0 | 0.00 | 0.00 | 0.00 | 58 | 1017.8 |
| 20260505184522 | 76 | 218 | 4.0 | 10.0 | 0.00 | 0.00 | 0.00 | 58 | 1017.7 |
| 20260505183517 | 76 | 217 | 4.0 | 7.0 | 0.00 | 0.00 | 0.00 | 58 | 1018.0 |
| 20260505182533 | 74 | 199 | 3.0 | 8.0 | 0.00 | 0.00 | 0.00 | 61 | 1018.1 |
| 20260505181529 | 74 | 196 | 4.0 | 9.0 | 0.00 | 0.00 | 0.00 | 59 | 1018.2 |
| 20260505180523 | 75 | 212 | 4.0 | 8.0 | 0.00 | 0.00 | 0.00 | 60 | 1018.1 |
| 20260505175517 | 74 | 226 | 3.0 | 6.0 | 0.00 | 0.00 | 0.00 | 62 | 1018.3 |
| 20260505174533 | 74 | 190 | 4.0 | 9.0 | 0.00 | 0.00 | 0.00 | 60 | 1018.4 |
| 20260505173528 | 75 | 202 | 4.0 | 8.0 | 0.00 | 0.00 | 0.00 | 58 | 1018.2 |
| 20260505172523 | 74 | 200 | 3.0 | 8.0 | 0.00 | 0.00 | 0.00 | 57 | 1018.5 |
| 20260505171518 | 75 | 216 | 3.0 | 6.0 | 0.00 | 0.00 | 0.00 | 57 | 1018.5 |
| 20260505170534 | 75 | 196 | 4.0 | 8.0 | 0.00 | 0.00 | 0.00 | 56 | 1018.7 |
| 20260505165529 | 75 | 219 | 3.0 | 7.0 | 0.00 | 0.00 | 0.00 | 57 | 1018.6 |
| 20260505164523 | 74 | 188 | 3.0 | 7.0 | 0.00 | 0.00 | 0.00 | 57 | 1018.7 |
| 20260505163518 | 76 | 185 | 5.0 | 9.0 | 0.00 | 0.00 | 0.00 | 55 | 1018.7 |
| 20260505162534 | 76 | 205 | 3.0 | 8.0 | 0.00 | 0.00 | 0.00 | 55 | 1018.7 |
| 20260505161529 | 75 | 172 | 5.0 | 10.0 | 0.00 | 0.00 | 0.00 | 57 | 1018.8 |
| 20260505160524 | 74 | 179 | 3.0 | 7.0 | 0.00 | 0.00 | 0.00 | 58 | 1018.9 |
| 20260505152525 | 74 | 200 | 2.0 | 6.0 | 0.00 | 0.00 | 0.00 | 59 | 1019.0 |
| 20260505151520 | 74 | 208 | 2.0 | 4.0 | 0.00 | 0.00 | 0.00 | 59 | 1018.9 |
| 20260505150535 | 74 | 199 | 3.0 | 7.0 | 0.00 | 0.00 | 0.00 | 59 | 1018.9 |
| 20260505140527 | 72 | 191 | 2.0 | 6.0 | 0.00 | 0.00 | 0.00 | 64 | 1018.6 |
| 20260505124528 | 68 | 176 | 3.0 | 6.0 | 0.00 | 0.00 | 0.00 | 77 | 1018.4 |
| 20260505123524 | 65 | 165 | 3.0 | 6.0 | 0.00 | 0.00 | 0.00 | 89 | 1018.3 |
| 20260505122518 | 64 | 150 | 1.0 | 4.0 | 0.00 | 0.00 | 0.00 | 96 | 1018.1 |
| 20260505121534 | 61 | 150 | 2.0 | 4.0 | 0.00 | 0.00 | 0.00 | 96 | 1018.2 |
| 20260505120529 | 60 | 124 | 1.0 | 4.0 | 0.00 | 0.00 | 0.00 | 96 | 1018.3 |
| 20260505115524 | 59 | 111 | 1.0 | 3.0 | 0.00 | 0.00 | 0.00 | 97 | 1018.2 |
| 20260505114520 | 59 | 118 | 1.0 | 3.0 | 0.00 | 0.00 | 0.00 | 96 | 1018.2 |
| 20260505113535 | 58 | 114 | 1.0 | 3.0 | 0.00 | 0.00 | 0.00 | 96 | 1018.1 |
| 20260505112530 | 57 | 101 | 1.0 | 3.0 | 0.00 | 0.00 | 0.00 | 96 | 1017.9 |
| 20260505111525 | 57 | 86 | 1.0 | 3.0 | 0.00 | 0.00 | 0.00 | 96 | 1017.7 |
| 20260505110521 | 56 | 102 | 1.0 | 3.0 | 0.00 | 0.00 | 0.00 | 96 | 1017.6 |
| 20260505101516 | 56 | 100 | 2.0 | 4.0 | 0.00 | 0.00 | 0.00 | 95 | 1017.1 |
| 20260505100532 | 57 | 110 | 1.0 | 3.0 | 0.00 | 0.00 | 0.00 | 94 | 1017.0 |
| 20260505095527 | 57 | 116 | 2.0 | 4.0 | 0.00 | 0.00 | 0.00 | 94 | 1017.0 |
| 20260505094522 | 57 | 128 | 2.0 | 4.0 | 0.00 | 0.00 | 0.00 | 94 | 1016.9 |
| 20260505093517 | 58 | 126 | 1.0 | 4.0 | 0.00 | 0.00 | 0.00 | 94 | 1016.9 |
| 20260505092532 | 58 | 44 | 2.0 | 4.0 | 0.00 | 0.00 | 0.00 | 94 | 1016.7 |
| 20260505091527 | 58 | 51 | 2.0 | 4.0 | 0.00 | 0.00 | 0.00 | 94 | 1016.6 |
| 20260505090524 | 58 | 82 | 1.0 | 4.0 | 0.00 | 0.00 | 0.00 | 93 | 1016.4 |
| 20260505085518 | 58 | 79 | 2.0 | 5.0 | 0.00 | 0.00 | 0.00 | 92 | 1016.5 |
| 20260505084533 | 59 | 130 | 2.0 | 5.0 | 0.00 | 0.00 | 0.00 | 92 | 1016.5 |
| 20260505083528 | 59 | 42 | 2.0 | 3.0 | 0.00 | 0.00 | 0.00 | 91 | 1016.3 |
| 20260505082523 | 59 | 38 | 2.0 | 4.0 | 0.00 | 0.00 | 0.00 | 90 | 1016.5 |
| 20260505081518 | 60 | 117 | 1.0 | 4.0 | 0.00 | 0.00 | 0.00 | 89 | 1016.4 |
| 20260505080534 | 60 | 137 | 1.0 | 3.0 | 0.00 | 0.00 | 0.00 | 88 | 1016.3 |
| 20260505075529 | 61 | 137 | 0.0 | 1.0 | 0.00 | 0.00 | 0.00 | 88 | 1016.3 |
| 20260505074524 | 61 | 87 | 0.0 | 1.0 | 0.00 | 0.00 | 0.00 | 87 | 1016.3 |
| 20260505073520 | 61 | 0.0 | 0.0 | 0.00 | 0.00 | 0.00 | 86 | 1016.3 | |
| 20260505072534 | 62 | 74 | 0.0 | 2.0 | 0.00 | 0.00 | 0.00 | 84 | 1016.4 |
| 20260505071529 | 63 | 104 | 0.0 | 1.0 | 0.00 | 0.00 | 0.00 | 82 | 1016.4 |
| 20260505070525 | 63 | 146 | 0.0 | 2.0 | 0.00 | 0.00 | 0.00 | 81 | 1016.4 |
| 20260505065520 | 63 | 127 | 0.0 | 3.0 | 0.00 | 0.00 | 0.00 | 81 | 1016.3 |
| 20260505064535 | 64 | 158 | 1.0 | 4.0 | 0.00 | 0.00 | 0.00 | 79 | 1016.4 |
| 20260505063530 | 64 | 151 | 1.0 | 3.0 | 0.00 | 0.00 | 0.00 | 79 | 1016.6 |
| 20260505062525 | 64 | 138 | 0.0 | 3.0 | 0.00 | 0.00 | 0.00 | 78 | 1016.7 |
| 20260505061520 | 64 | 156 | 1.0 | 3.0 | 0.00 | 0.00 | 0.00 | 77 | 1016.8 |
| 20260505060535 | 65 | 154 | 1.0 | 3.0 | 0.00 | 0.00 | 0.00 | 76 | 1016.8 |
| 20260505055531 | 65 | 170 | 1.0 | 3.0 | 0.00 | 0.00 | 0.00 | 76 | 1017.0 |
| 20260505054525 | 65 | 164 | 2.0 | 4.0 | 0.00 | 0.00 | 0.00 | 75 | 1017.1 |
| 20260505053521 | 65 | 166 | 2.0 | 4.0 | 0.00 | 0.00 | 0.00 | 75 | 1017.2 |
| 20260505052536 | 65 | 163 | 2.0 | 3.0 | 0.00 | 0.00 | 0.00 | 74 | 1017.2 |
| 20260505051531 | 65 | 173 | 1.0 | 4.0 | 0.00 | 0.00 | 0.00 | 74 | 1017.3 |
| 20260505050526 | 65 | 175 | 2.0 | 5.0 | 0.00 | 0.00 | 0.00 | 74 | 1017.3 |
| 20260505041522 | 65 | 172 | 2.0 | 5.0 | 0.00 | 0.00 | 0.00 | 71 | 1017.4 |
| 20260505040517 | 65 | 171 | 1.0 | 4.0 | 0.00 | 0.00 | 0.00 | 71 | 1017.4 |